Weather History for Seward, AK

Change the Weather History Date:

Friday, March 23, 2012

  Actual Average Record
Temperature  
Mean Temperature 22 °F -  
Max Temperature 32 °F 39 °F 54 °F (1965)
Min Temperature 12 °F 28 °F 6 °F (1959)
Degree Days  
Heating Degree Days 43    
Moisture  
Dew Point 22 °F    
Average Humidity 82    
Maximum Humidity 93    
Minimum Humidity 65    
Precipitation  
Precipitation 0.13 in - - ()
Sea Level Pressure  
Sea Level Pressure 30.00 in    
Wind  
Wind Speed 10 mph (South)    
Max Wind Speed 22 mph    
Max Gust Speed 25 mph    
Visibility 3 miles    
Events Fog , Snow    
Averages and records for this station are not official NWS values.
T = Trace of Precipitation, MM = Missing Value Source: NWS Daily Summary

Daily Weather History Graph

Daily Weather History Graph

Search for Another Location

Airport:

Trip Planner

Search our weather history database for the weather conditions in past years. The results will help you decide how hot, cold, wet, or windy it might be!

Date:

Astronomy

Mar. 23, 2012 Rise Set
Actual Time 7:47 AM AKDT 8:21 PM AKDT
Civil Twilight 7:05 AM AKDT 9:03 PM AKDT
Nautical Twilight 6:15 AM AKDT 9:54 PM AKDT
Astronomical Twilight 5:18 AM AKDT 10:51 PM AKDT
Moon 7:32 AM AKDT (3/23) 10:32 PM AKDT (3/23)
Length of Visible Light 13h 57m
Length of Day
12h 33m
New Moon, 1% of the Moon is Illuminated
Mar 23
New Moon
Mar 30
First Quarter
Apr 6
Full
Apr 13
Last Quarter
Apr 20
New

Hourly Weather History & Observations

Time (AKDT) Temp. Windchill Dew Point Humidity Pressure Visibility Wind Dir Wind Speed Gust Speed Precip Events Conditions
12:53 AM 19.9 °F 8.6 °F 10.0 °F 65% 30.09 in 10.0 mi North 10.4 mph - N/A   Clear
1:53 AM 16.0 °F 5.3 °F 7.0 °F 68% 30.09 in 10.0 mi NNW 8.1 mph - N/A   Clear
2:53 AM 12.9 °F 0.7 °F 5.0 °F 71% 30.10 in 10.0 mi NNW 9.2 mph - N/A   Clear
3:53 AM 14.0 °F 2.0 °F 6.1 °F 71% 30.10 in 10.0 mi NNW 9.2 mph - N/A   Overcast
4:53 AM 14.0 °F 2.0 °F 6.1 °F 71% 30.09 in 10.0 mi NNW 9.2 mph - N/A   Overcast
5:53 AM 14.0 °F 2.9 °F 6.1 °F 71% 30.09 in 10.0 mi NNW 8.1 mph - N/A   Overcast
6:53 AM 12.0 °F 2.7 °F 5.0 °F 73% 30.09 in 10.0 mi North 5.8 mph - N/A   Overcast
7:53 AM 15.1 °F 9.4 °F 7.0 °F 70% 30.09 in 10.0 mi NNW 3.5 mph - N/A   Mostly Cloudy
8:50 AM 15.8 °F 10.2 °F 8.6 °F 73% 30.11 in 1.8 mi North 3.5 mph - 0.00 in Snow Light Snow
8:53 AM 16.0 °F 10.4 °F 10.0 °F 77% 30.11 in 1.5 mi NNE 3.5 mph - 0.00 in Snow Light Snow
9:06 AM 17.6 °F 12.3 °F 10.4 °F 73% 30.10 in 1.8 mi North 3.5 mph - 0.00 in Snow Light Snow
9:14 AM 17.6 °F 10.7 °F 10.4 °F 73% 30.10 in 3.0 mi NNW 4.6 mph - 0.00 in Snow Light Snow
9:21 AM 17.6 °F 10.7 °F 10.4 °F 73% 30.10 in 6.0 mi North 4.6 mph - 0.00 in Snow Light Snow
9:53 AM 19.9 °F - 12.9 °F 74% 30.09 in 10.0 mi Calm Calm - 0.00 in   Overcast
10:07 AM 21.2 °F 16.4 °F 14.0 °F 74% 30.08 in 1.8 mi North 3.5 mph - 0.00 in Snow Light Snow
10:18 AM 21.2 °F 16.4 °F 15.8 °F 80% 30.08 in 2.0 mi North 3.5 mph - 0.00 in Snow Light Snow
10:33 AM 21.2 °F - 15.8 °F 80% 30.08 in 5.0 mi Calm Calm - 0.00 in Snow Light Snow
10:53 AM 23.0 °F - 17.1 °F 78% 30.08 in 3.0 mi Calm Calm - 0.00 in Snow Light Snow
11:51 AM 24.8 °F - 19.4 °F 80% 30.08 in 1.8 mi Calm Calm - 0.00 in Snow Light Snow
11:53 AM 25.0 °F - 19.9 °F 81% 30.08 in 1.8 mi Calm Calm - 0.00 in Snow Light Snow
12:10 PM 26.6 °F - 19.4 °F 74% 30.07 in 2.5 mi Calm Calm - 0.00 in Snow Light Snow
12:20 PM 26.6 °F - 21.2 °F 80% 30.07 in 7.0 mi Calm Calm - 0.00 in Snow Light Snow
12:53 PM 30.9 °F 22.8 °F 21.9 °F 69% 30.06 in 10.0 mi South 9.2 mph - 0.00 in   Overcast
1:53 PM 30.9 °F 18.7 °F 23.0 °F 72% 30.04 in 8.0 mi South 19.6 mph 25.3 mph 0.00 in Snow Light Snow
2:04 PM 30.2 °F 18.1 °F 24.8 °F 80% 30.04 in 1.8 mi SSW 18.4 mph - 0.00 in Snow Light Snow
2:14 PM 30.2 °F 18.9 °F 24.8 °F 80% 30.03 in 3.0 mi SSW 16.1 mph - 0.00 in Snow Light Snow
2:21 PM 30.2 °F 17.8 °F 24.8 °F 80% 30.03 in 7.0 mi SSW 19.6 mph 25.3 mph 0.00 in Snow Light Snow
2:53 PM 30.0 °F 17.9 °F 25.0 °F 82% 30.02 in 3.0 mi SSW 18.4 mph - 0.00 in Snow Light Snow
3:11 PM 30.2 °F 18.1 °F 24.8 °F 80% 30.02 in 1.8 mi SSW 18.4 mph - 0.00 in Snow Light Snow
3:15 PM 30.2 °F 20.8 °F 26.6 °F 86% 30.02 in 1.2 mi South 11.5 mph 19.6 mph 0.00 in Snow Light Snow
3:26 PM 30.2 °F 19.8 °F 26.6 °F 86% 30.01 in 1.0 mi South 13.8 mph 20.7 mph 0.00 in Snow Light Snow
3:45 PM 30.2 °F 20.8 °F 26.6 °F 86% 30.00 in 1.0 mi South 11.5 mph 20.7 mph 0.00 in Snow Light Snow
3:53 PM 30.0 °F 18.3 °F 26.1 °F 85% 30.00 in 0.8 mi South 17.3 mph 21.9 mph 0.00 in Snow Light Snow
4:06 PM 30.2 °F 21.3 °F 26.6 °F 86% 30.00 in 0.5 mi South 10.4 mph 25.3 mph 0.00 in Fog , Snow Snow
4:35 PM 30.2 °F 20.2 °F 26.6 °F 86% 29.99 in 0.8 mi South 12.7 mph 17.3 mph 0.01 in Snow Light Snow
4:42 PM 30.2 °F 18.9 °F 26.6 °F 86% 29.99 in 0.8 mi South 16.1 mph 24.2 mph 0.01 in Snow Light Snow
4:49 PM 30.2 °F 17.4 °F 28.4 °F 93% 29.99 in 0.2 mi South 20.7 mph 24.2 mph 0.01 in Fog , Snow Snow
4:53 PM 30.9 °F 18.1 °F 28.0 °F 89% 29.99 in 0.2 mi South 21.9 mph 25.3 mph 0.01 in Fog , Snow Snow
5:19 PM 30.2 °F 18.9 °F 26.6 °F 86% 29.98 in 1.0 mi South 16.1 mph 20.7 mph 0.00 in Snow Light Snow
5:22 PM 30.2 °F 18.1 °F 26.6 °F 86% 29.98 in 2.0 mi SSW 18.4 mph 25.3 mph 0.00 in Snow Light Snow
5:24 PM 30.2 °F 17.4 °F 26.6 °F 86% 29.98 in 3.0 mi SSW 20.7 mph 25.3 mph 0.00 in Snow Light Snow
5:46 PM 30.2 °F 20.8 °F 26.6 °F 86% 29.98 in 2.0 mi SSE 11.5 mph 17.3 mph 0.00 in Snow Light Snow
5:53 PM 30.0 °F 21.1 °F 26.1 °F 85% 29.98 in 1.2 mi SE 10.4 mph - 0.00 in Snow Light Snow
5:57 PM 30.2 °F 21.9 °F 26.6 °F 86% 29.97 in 1.0 mi SSE 9.2 mph - 0.00 in Snow Light Snow
6:01 PM 30.2 °F 21.3 °F 26.6 °F 86% 29.97 in 0.8 mi SSE 10.4 mph - 0.01 in Snow Light Snow
6:07 PM 30.2 °F 20.8 °F 26.6 °F 86% 29.97 in 1.2 mi SSE 11.5 mph - 0.01 in Snow Light Snow
6:16 PM 30.2 °F 21.9 °F 26.6 °F 86% 29.96 in 0.8 mi SSE 9.2 mph 16.1 mph 0.01 in Snow Light Snow
6:31 PM 30.2 °F 21.3 °F 26.6 °F 86% 29.96 in 0.2 mi SSE 10.4 mph - 0.02 in Fog , Snow Heavy Snow
6:53 PM 30.9 °F 20.2 °F 28.0 °F 89% 29.95 in 0.8 mi South 15.0 mph 19.6 mph 0.03 in Snow Light Snow
7:16 PM 32.0 °F 20.5 °F 26.6 °F 80% 29.94 in 1.2 mi SSW 18.4 mph 24.2 mph 0.00 in Snow Light Snow
7:20 PM 32.0 °F 20.5 °F 26.6 °F 80% 29.94 in 2.0 mi SSW 18.4 mph 24.2 mph 0.00 in Snow Light Snow
7:38 PM 30.2 °F 17.8 °F 26.6 °F 86% 29.94 in 1.2 mi South 19.6 mph 25.3 mph 0.00 in Snow Light Snow
7:49 PM 30.2 °F 18.5 °F 26.6 °F 86% 29.94 in 1.2 mi SSW 17.3 mph - 0.00 in Snow Light Snow
7:53 PM 30.9 °F 18.7 °F 27.0 °F 85% 29.94 in 1.2 mi SSW 19.6 mph - 0.00 in Snow Light Snow
8:01 PM 30.2 °F 18.5 °F 26.6 °F 86% 29.93 in 0.8 mi South 17.3 mph - 0.00 in Snow Light Snow
8:16 PM 30.2 °F 20.2 °F 26.6 °F 86% 29.93 in 1.2 mi South 12.7 mph 18.4 mph 0.00 in Snow Light Snow
8:26 PM 30.2 °F 19.8 °F 26.6 °F 86% 29.93 in 2.0 mi South 13.8 mph 20.7 mph 0.00 in Snow Light Snow
8:37 PM 32.0 °F 20.5 °F 26.6 °F 80% 29.93 in 3.0 mi SSW 18.4 mph - 0.00 in Snow Light Snow
8:53 PM 32.0 °F 22.1 °F 26.1 °F 79% 29.93 in 2.0 mi South 13.8 mph 21.9 mph 0.00 in Snow Light Snow
9:01 PM 32.0 °F 22.1 °F 26.6 °F 80% 29.93 in 1.8 mi South 13.8 mph 21.9 mph 0.00 in Snow Light Snow
9:10 PM 30.2 °F 18.5 °F 26.6 °F 86% 29.93 in 1.0 mi SSW 17.3 mph 21.9 mph 0.00 in Snow Light Snow
9:34 PM 30.2 °F 20.2 °F 28.4 °F 93% 29.92 in 0.8 mi South 12.7 mph 19.6 mph 0.01 in Snow Light Snow
9:53 PM 30.9 °F 19.8 °F 28.0 °F 89% 29.92 in 0.8 mi South 16.1 mph - 0.01 in Snow Light Snow
10:07 PM 30.2 °F 19.3 °F 28.4 °F 93% 29.92 in 1.0 mi SSW 15.0 mph - 0.01 in Snow Light Snow
10:14 PM 30.2 °F 18.1 °F 28.4 °F 93% 29.92 in 0.8 mi SSW 18.4 mph - 0.01 in Snow Light Snow
10:21 PM 30.2 °F 19.3 °F 28.4 °F 93% 29.91 in 1.0 mi SSW 15.0 mph - 0.01 in Snow Light Snow
10:30 PM 32.0 °F 21.6 °F 28.4 °F 87% 29.91 in 1.8 mi SSW 15.0 mph - 0.01 in Snow Light Snow
10:50 PM 32.0 °F 22.5 °F 26.6 °F 80% 29.91 in 3.0 mi SSW 12.7 mph - 0.01 in Snow Light Snow
10:53 PM 32.0 °F 24.2 °F 26.1 °F 79% 29.91 in 6.0 mi South 9.2 mph - 0.01 in Snow Light Snow
11:05 PM 30.2 °F 22.6 °F 26.6 °F 86% 29.91 in 1.8 mi SSW 8.1 mph - 0.00 in Snow Light Snow
11:16 PM 30.2 °F 21.9 °F 26.6 °F 86% 29.90 in 2.0 mi SE 9.2 mph - 0.00 in Snow Light Snow
11:25 PM 28.4 °F 22.2 °F 26.6 °F 93% 29.90 in 1.2 mi ESE 5.8 mph - 0.01 in Snow Light Snow
11:29 PM 30.2 °F - 26.6 °F 86% 29.90 in 0.8 mi Calm Calm - 0.01 in Snow Light Snow
11:37 PM 28.4 °F 23.3 °F 26.6 °F 93% 29.90 in 0.8 mi East 4.6 mph - 0.02 in Snow Light Snow
11:53 PM 30.0 °F - 27.0 °F 88% 29.91 in 0.5 mi Calm Calm - 0.07 in Fog , Snow Snow